Needles, CA

9:03 AM PDT on October 23, 2017 (GMT -0700)
Needles

Weather History for KEED - June, 2014

Change the Weather History Date:

Friday, June 6, 2014

  Actual Average Record
Temperature  
Mean Temperature 94 °F 88 °F  
Max Temperature 109 °F 102 °F 114 °F (2002)
Min Temperature 79 °F 74 °F 54 °F (1993)
Degree Days  
Heating Degree Days 0    
Cooling Degree Days 29    
Growing Degree Days 44 (Base 50)    
Moisture  
Dew Point 13 °F    
Average Humidity 5    
Maximum Humidity 11    
Minimum Humidity 4    
Precipitation  
Precipitation 0.00 in 0.00 in 0.23 in (1972)
Month to date precipitation 0.01  
Year to date precipitation 2.36  
Sea Level Pressure  
Sea Level Pressure 29.50 in    
Wind  
Wind Speed 6 mph (SW)    
Max Wind Speed 17 mph    
Max Gust Speed 21 mph    
Visibility 10 miles    
Events      
T = Trace of Precipitation, MM = Missing Value Source: NWS Daily Summary

Daily Weather History Graph

Daily Weather History Graph

Search for Another Location

Airport or City:

Trip Planner

Search our weather history database for the weather conditions in past years. The results will help you decide how hot, cold, wet, or windy it might be!

Date:

Astronomy

Jun. 06, 2014 Rise Set
Actual Time 5:25 AM PDT 7:49 PM PDT
Civil Twilight 4:55 AM PDT 8:18 PM PDT
Nautical Twilight 4:19 AM PDT 8:54 PM PDT
Astronomical Twilight 3:40 AM PDT 9:34 PM PDT
Moon 1:27 PM PDT (6/6) 1:03 AM PDT (6/6)
Length of Visible Light 15h 23m
Length of Day
14h 24m
First Quarter, 59% of the Moon is Illuminated
Jun 6
First Quarter
Jun 12
Full
Jun 19
Last Quarter
Jun 27
New
Jul 5
First Quarter

Hourly Weather History & Observations

Time (PDT) Temp. Dew Point Humidity Pressure Visibility Wind Dir Wind Speed Gust Speed Precip Events Conditions
12:56 AM 88.0 °F 5.0 °F 4% 29.50 in 10.0 mi West 6.9 mph - N/A   Clear
1:56 AM 87.1 °F 7.0 °F 5% 29.50 in 10.0 mi South 3.5 mph - N/A   Clear
2:56 AM 84.0 °F 7.0 °F 5% 29.50 in 10.0 mi SE 3.5 mph - N/A   Clear
3:56 AM 82.0 °F 12.9 °F 7% 29.51 in 10.0 mi Calm Calm - N/A   Clear
4:56 AM 79.0 °F 12.0 °F 8% 29.52 in 10.0 mi WNW 6.9 mph - N/A   Clear
5:56 AM 80.1 °F 21.0 °F 11% 29.54 in 10.0 mi ENE 5.8 mph - N/A   Clear
6:56 AM 84.0 °F 15.1 °F 8% 29.56 in 10.0 mi WNW 3.5 mph - N/A   Clear
7:56 AM 88.0 °F 12.9 °F 6% 29.57 in 10.0 mi Calm Calm - N/A   Clear
8:56 AM 93.0 °F 12.9 °F 5% 29.57 in 10.0 mi East 3.5 mph - N/A   Clear
9:56 AM 97.0 °F 19.9 °F 6% 29.56 in 10.0 mi Variable 3.5 mph - N/A   Clear
10:56 AM 100.9 °F 21.9 °F 6% 29.55 in 10.0 mi Variable 4.6 mph - N/A   Clear
11:56 AM 105.1 °F 21.0 °F 5% 29.54 in 10.0 mi ENE 9.2 mph - N/A   Clear
12:56 PM 106.0 °F 14.0 °F 4% 29.52 in 10.0 mi SW 8.1 mph - N/A   Clear
1:56 PM 109.0 °F 6.1 °F 4% 29.50 in 10.0 mi SW 13.8 mph 19.6 mph N/A   Clear
2:56 PM 108.0 °F 9.0 °F 4% 29.48 in 10.0 mi Calm Calm - N/A   Clear
3:56 PM 109.0 °F 14.0 °F 4% 29.46 in 10.0 mi SSW 9.2 mph - N/A   Clear
4:56 PM 109.0 °F 15.1 °F 4% 29.45 in 10.0 mi WSW 8.1 mph 20.7 mph N/A   Partly Cloudy
5:56 PM 107.1 °F 12.9 °F 4% 29.44 in 10.0 mi Variable 4.6 mph - N/A   Partly Cloudy
6:56 PM 106.0 °F 12.0 °F 4% 29.46 in 10.0 mi SW 10.4 mph - N/A   Clear
7:56 PM 102.9 °F 10.0 °F 4% 29.46 in 10.0 mi WSW 10.4 mph - N/A   Clear
8:56 PM 99.0 °F 10.9 °F 4% 29.47 in 10.0 mi West 10.4 mph - N/A   Clear
9:56 PM 96.1 °F 18.0 °F 6% 29.48 in 10.0 mi SW 9.2 mph - N/A   Clear
11:56 PM 93.9 °F 17.1 °F 6% 29.47 in 10.0 mi WSW 17.3 mph - N/A   Clear